This demonstration page uses our WeatherBlox Daily Observations layout. Learn more.

Left ArrowRight Arrow

Hourly Observations for September 27, 2015

Temp ( °F °C ) Dew Point ( °F °C ) Humidity (%) Winds ( mph kmh ) Pressure ( in mb ) Visibility ( mi km ) Precip ( " mm )
12:53 am 00:53 Clear 61 16.1 50 10 67 67 S 6 9 30.01 1016 10 16 0.00 0.00
1:53 am 01:53 Clear 60 15.6 49 9.4 67 67 S 6 9 30.00 1016 10 16 0.00 0.00
2:53 am 02:53 Clear 60 15.6 50 10 70 70 S 7 11 29.99 1016 10 16 0.00 0.00
3:53 am 03:53 Clear 60 15.6 51 10.6 72 72 S 7 11 29.97 1015 10 16 0.00 0.00
4:53 am 04:53 Clear 59 15 51 10.6 75 75 S 7 11 29.97 1015 10 16 0.00 0.00
5:53 am 05:53 Clear 58 14.4 51 10.6 78 78 S 6 9 29.96 1015 10 16 0.00 0.00
6:53 am 06:53 Clear 57 13.9 51 10.6 81 81 S 5 7 29.96 1015 10 16 0.00 0.00
7:53 am 07:53 Sunny 56 13.3 51 10.6 84 84 S 5 7 29.97 1015 10 16 0.00 0.00
8:53 am 08:53 Sunny 61 16.1 53 11.7 75 75 S 7 11 29.97 1015 10 16 0.00 0.00
9:53 am 09:53 Sunny 69 20.6 54 12.2 59 59 SSW 10 17 29.96 1015 10 16 0.00 0.00
10:53 am 10:53 Sunny 75 23.9 55 12.8 50 50 SSW 13 20 29.95 1014 10 16 0.00 0.00
11:53 am 11:53 Sunny 78 25.6 57 13.9 48 48 S 13 20 29.93 1014 10 16 0.00 0.00
12:53 pm 12:53 Sunny 81 27.2 57 13.9 44 44 S 15 24 29.90 1013 10 16 0.00 0.00
1:53 pm 13:53 Sunny 82 27.8 57 13.9 42 42 S 12 19 29.88 1012 10 16 0.00 0.00
2:53 pm 14:53 Sunny 84 28.9 56 13.3 38 38 S 15 24 29.84 1011 10 16 0.00 0.00
3:53 pm 15:53 Sunny 84 28.9 56 13.3 38 38 S 14 22 29.83 1010 10 16 0.00 0.00
4:53 pm 16:53 Sunny 84 28.9 56 13.3 38 38 S 13 20 29.82 1010 10 16 0.00 0.00
5:53 pm 17:53 Sunny 83 28.3 56 13.3 40 40 S 13 20 29.81 1010 10 16 0.00 0.00
6:53 pm 18:53 Sunny 81 27.2 55 12.8 41 41 S 8 13 29.82 1010 10 16 0.00 0.00
7:53 pm 19:53 Clear 76 24.4 56 13.3 50 50 SSE 8 13 29.84 1011 10 16 0.00 0.00
8:53 pm 20:53 Clear 73 22.8 55 12.8 53 53 SSE 14 22 29.86 1011 10 16 0.00 0.00
9:53 pm 21:53 Clear 71 21.7 56 13.3 59 59 S 12 19 29.86 1011 10 16 0.00 0.00
10:53 pm 22:53 Clear 69 20.6 56 13.3 63 63 S 10 17 29.85 1011 10 16 0.00 0.00
11:53 pm 23:53 Clear 67 19.4 56 13.3 68 68 S 10 17 29.85 1011 10 16 0.00 0.00

Powered by AerisWeather